This is the latest recevied weather packets stored in our database for station/object WA0GMH-1. If no packets are shown the sender has not sent any weather packets the latest 1 day(s).
| Time | Temp. | Humidity | Pressure | Rain* | Wind** | Luminosity | Snow |
|---|---|---|---|---|---|---|---|
| 1777991112 | 6.11° C | 11% | 1013.4 hPa | 0 mm | 0 m/s | - | - |
| 1777990709 | 6.11° C | 14% | 1013.3 hPa | 0 mm | 0 m/s | - | - |
| 1777990307 | 6.11° C | 16% | 1013.5 hPa | 0 mm | 0 m/s | - | - |
| 1777989905 | 5.56° C | 16% | 1013.3 hPa | 0 mm | 0 m/s | - | - |
| 1777989503 | 5.56° C | 17% | 1013.5 hPa | 0 mm | 0 m/s | - | - |
| 1777989100 | 5.56° C | 17% | 1013.5 hPa | 0 mm | 0 m/s | - | - |
| 1777988698 | 5° C | 18% | 1013.3 hPa | 0 mm | 0 m/s | - | - |
| 1777988296 | 5° C | 17% | 1013.3 hPa | 0 mm | 0 m/s | - | - |
| 1777987894 | 5° C | 18% | 1013.2 hPa | 0 mm | 0 m/s | - | - |
| 1777987491 | 5° C | 18% | 1013 hPa | 0 mm | 0 m/s | - | - |
| 1777987089 | 4.44° C | 20% | 1013.1 hPa | 0 mm | 0 m/s | - | - |
| 1777986687 | 4.44° C | 21% | 1012.9 hPa | 0 mm | 0 m/s | - | - |
| 1777986285 | 4.44° C | 22% | 1012.9 hPa | 0 mm | 0 m/s | - | - |
| 1777985882 | 4.44° C | 22% | 1012.6 hPa | 0 mm | 0 m/s | - | - |
| 1777985480 | 4.44° C | 22% | 1012.5 hPa | 0 mm | 0 m/s | - | - |
| 1777985078 | 3.89° C | 22% | 1012.5 hPa | 0 mm | 0 m/s | - | - |
| 1777984676 | 3.89° C | 23% | 1012.2 hPa | 0 mm | 0 m/s | - | - |
| 1777984273 | 3.89° C | 23% | 1012 hPa | 0 mm | 0 m/s | - | - |
| 1777983871 | 3.89° C | 23% | 1011.9 hPa | 0 mm | 0 m/s | - | - |
| 1777983469 | 3.89° C | 23% | 1012 hPa | 0 mm | 0 m/s | - | - |
| 1777983067 | 3.89° C | 23% | 1012 hPa | 0 mm | 0 m/s | - | - |
| 1777982664 | 3.33° C | 22% | 1011.7 hPa | 0 mm | 0 m/s | - | - |
| 1777982262 | 3.33° C | 22% | 1011.7 hPa | 0 mm | 0 m/s | - | - |
| 1777981860 | 3.33° C | 23% | 1011.7 hPa | 0 mm | 0 m/s | - | - |
| 1777981458 | 3.33° C | 21% | 1011.4 hPa | 0 mm | 0 m/s | - | - |
* Rain since midnight (hover to see other rain measurements)
** Current wind speed in m/s (hover to see current wind gust speed)